カタログに戻る

GEESAT 5-09

運用中通信LEO
NORAD 65558·PAYLOAD·🇨🇳 China

打ち上げ Sep 8, 2025 から Yellow Sea Launch Area

Loading…

次のパス (今後24時間)

TLE

最新Source: Space-Track

元期: Sep 14, 2026, 15:03 UTC

1 65558U 25201J   26257.62719294  .00001176  00000-0  16537-3 0  9991
2 65558  49.9828 343.8174 0008686 251.6056 108.3939 14.84377009 55088

AllMySatでGEESAT 5-09をリアルタイム追跡

Download on the App Store